Starlink 1497

operational
NORAD ID: 45781 Int'l Des: 2020-038 Owner: SPXS Country: US Constellation: starlink
LEOCIRCULAR

Über Starlink 1497

Beschreibung wird geladen...

Live-Position

3D-Globus wird geladen...

Nächste Überflüge

Höhenverlauf

Altitude vs Time

uPlot chart will show altitude changes over time

Zweizeiliger Elementsatz

1 45781U 20038BD 25260.26141489 .00027883 00000-0 64275-3 0 9993
2 45781 53.0424 213.4861 0012362 53.7628 306.4517 15.42323686291205
Epoch: 17. Sept. 2025 • Age: 27 hours

Aktueller Status

Höhe 443.5 km
Geschwindigkeit 7.65 km/s
Subsatellitenpunkt 3.51°N, 114.11°W
Startdatum 13. Juni 2020
Alter 5.2 years
Typ internet

Technische Details

Klassifizierung Payload
Masse 260.00 kg
Trockenmasse 248.00 kg
Gesamtmasse 260.00 kg
Länge 0.20 m
Durchmesser 2.80 m
Spannweite 9.00 m
Form Box + pan
Hersteller SPXS
Bus-Typ Starlink
Phasenstatus In Orbit
Besitzer/Staat SPXS/US

Große Konstellationen

Loading constellations...